Tracking 19831 objects as of 23-Aug-2019
HD Live streaming from Space Station
objects crossing your sky now

TITAN 3C TRANSTAGE DEB

Track TITAN 3C TRANSTAGE DEB now!
10-day predictions


NORAD ID: 19595
Int'l Code: 1965-108AB
Perigee: 385.4 km
Apogee: 21,052.2 km
Inclination: 26.9 °
Period: 370.6 minutes
Semi major axis: 17089 km
RCS: 0.0425 m2 (small)
Launch date: December 21, 1965
Source: United States (US)
Launch site: AIR FORCE EASTERN TEST RANGE (AFETR)

Note: This is SATELLITE DEBRIS
aabbcc
Your satellite tracking list
Your tracking list is empty




NASA's NSSDC Master Catalog

Two Line Element Set (TLE):
1 19595U 65108AB  19234.89607030  .00000723  00000-0  57501-3 0  9994
2 19595  26.8587 129.3103 6046520  98.4302 330.1197  3.88594558345635
Source of the keplerian elements: AFSPC